Regional Weather Roundup
Issued by NWS

Home | Current Version | Previous Version | Text Only | Print | Product List | Glossary On
Versions: 1 2 3 4 5 6 7 8 9 10 11 12 13 14 15 16 17 18 19 20 21 22 23 24 25 26 27 28 29 30 31 32 33 34 35 36 37 38 39 40 41 42 43 44 45 46 47 48 49 50
000
ASUS43 KFSD 300702
RWRSD

WEATHER ROUNDUP FOR SOUTH DAKOTA
NATIONAL WEATHER SERVICE SIOUX FALLS SD
100 AM CST FRI JAN 30 2015

NOTE: "FAIR" INDICATES FEW OR NO CLOUDS BELOW 12,000 FEET WITH NO
SIGNIFICANT WEATHER AND/OR OBSTRUCTIONS TO VISIBILITY.


SDZ001>005-009-010-012>017-300800-
NORTHWEST AND NORTH CENTRAL SOUTH DAKOTA

CITY           SKY/WX    TMP DP  RH WIND       PRES   REMARKS
BUFFALO          N/A     27  15  61 S9        30.20F WCI  18
FAITH            N/A     23  16  74 SE16      30.31F WCI  10
MOBRIDGE       CLEAR     22  18  85 SE13      30.39F WCI  10
$$

SDZ012>016-024>037-041>051-057-063-072>074-300800-
SOUTHWEST AND SOUTH CENTRAL SOUTH DAKOTA

CITY           SKY/WX    TMP DP  RH WIND       PRES   REMARKS
RAPID CTY ARPT CLEAR     23  12  62 SE7       30.29F WCI  15
PIERRE         CLEAR     22  18  85 SE13      30.42F WCI  10
CUSTER         CLEAR     27  15  61 W5        30.27F WCI  22
ELLSWORTH AFB  CLEAR     29  13  51 S6        30.27F WCI  23
PHILIP         CLEAR     21  15  78 E6        30.37F WCI  13
PINE RIDGE     CLEAR     32  15  49 SW8       30.32F WCI  25
WINNER         FAIR      24  19  81 SE10      30.44F WCI  14
$$

SDZ004>011-016>023-039-040-300800-
NORTHEAST SOUTH DAKOTA

CITY           SKY/WX    TMP DP  RH WIND       PRES   REMARKS
ABERDEEN       CLEAR     16  12  84 S5        30.50F WCI   9
WATERTOWN      CLOUDY    18  13  80 S6        30.47F WCI  10
SISSETON         N/A     15  10  80 E6        30.52F WCI   6
$$

SDZ017-020-022-023-036>040-048>070-300800-
SOUTHEAST SOUTH DAKOTA

CITY           SKY/WX    TMP DP  RH WIND       PRES   REMARKS
SIOUX FALLS    PTCLDY    19  15  84 NE3       30.52F
HURON          CLEAR     18  15  88 S5        30.51F WCI  11
MITCHELL       CLEAR     20  17  88 S7        30.53F WCI  11
YANKTON        CLEAR     19  18  93 CALM      30.55F
$$

ABBREVIATIONS USED IN REMARKS
   TC - TEMPERATURE IN CELSIUS
  WCI - WIND CHILL INDEX
   HX - HEAT INDEX
  VSB - VISIBILITY




USA.gov is the U.S. government's official web portal to all federal, state and local government web resources and services.